User: anonymous   Login
Location: Churchill
(58.7670°N, 94.1670°W)
Time: 11:54:04
(UTC-05:00)
Language:

Cosmos 1315 Rocket - Orbit

View from above orbital plane
View from above orbital plane
View from above satellite
View from above satellite

Ground track
Ground track

The orbit data is extracted from the following two-line orbital elements,

1 12904U 81103B   14297.26736984  .00004479  00000-0  32892-3 0  6120
2 12904 081.1759 298.5971 0029578 006.5223 353.6377 15.02925691347434
Epoch (UTC): 24 October 2014 06:25:00
Eccentricity: 0.0029578
inclination: 81.1759°
perigee height: 537 km
apogee height: 578 km
right ascension of ascending node: 298.5971°
argument of perigee: 6.5223°
revolutions per day: 15.02925691
mean anomaly at epoch: 353.6377°
orbit number at epoch: 34743

The dashed part of the orbit path shows where the satellite is in the earth's shadow,  

DLR